www.pogodaiklimat.ru

Погода и климат >> Архив погоды >> Финляндия >> Пюхя


ПОГОДА в Пюхе

  • Прогноз погоды в Пюхе
  • Монитор погоды в Пюхе

АРХИВ ПОГОДЫ в Пюхе

Время (UTC), дата Ветер
(напр.,м/с)
 
Видим.   Явления Облачность Т
(С)
Тd
(С)
f
(%)
Тe
(С)
Тes
(С)
Комфортность P
(гПа)
Po
(гПа)
Тmin
(С)
Tmax
(С)
R
(мм)
R24
(мм)
S
(см)
10 17.06 СВ 1 н/о н/о +15.3 +2.4 42 +16 +16 1007.3 950.9
11 17.06 С 5 н/о н/о +15.7 +5.2 50 +15 +15 1006.9 950.5
12 17.06 С 4-5
{5}
н/о н/о +15.3 +3.1 44 +14 +14 1006.8 950.3
13 17.06 С 4 н/о н/о +16.6 +3.7 42 +16 +16 1006.1 949.9
14 17.06 С 6-7
{7}
н/о н/о +16.4 +3.2 41 +15 +15 1005.6 949.5
15 17.06 С 4-6
{8}
н/о н/о +17.4 +6.0 47 +17 +17 1005.5 949.5
16 17.06 С 5 н/о н/о +17.0 +5.2 46 +16 +16 1005.6 949.6
17 17.06 С 5 н/о н/о +17.3 +4.4 42 +17 +17 1005.2 949.2
18 17.06 С 4-5
{6}
н/о н/о +15.8 +6.6 54 +15 +15 1005.6 949.3 +12.3 +17.8
19 17.06 С 4-4
{5}
н/о н/о +15.4 +5.1 50 +15 +15 1005.6 949.2
20 17.06 С 4-4
{5}
н/о н/о +14.6 +5.7 55 +14 +14 1005.7 949.2
21 17.06 С 4-4
{4}
н/о н/о +14.4 +5.1 54 +13 +13 1005.8 949.3
22 17.06 С 5 н/о н/о +14.1 +4.6 53 +13 +13 1005.8 949.2
23 17.06 СВ 7 н/о н/о +12.2 +5.6 64 +9 +9 1006.3 949.3
00 18.06 В 3-11
{11}
н/о н/о +11.6 +2.1 52 +10 +10 1006.4 949.2
01 18.06 ЮЗ 2-9
{9}
н/о н/о +11.7 +1.8 51 +11 +11 1006.6 949.5
02 18.06 СВ 3 н/о н/о +11.2 +2.3 54 +10 +10 1006.8 949.6
03 18.06 С 8-10
{11}
н/о н/о +10.7 +3.2 60 +7 +7 1006.9 949.6
04 18.06 С 8 н/о н/о +10.1 +2.9 61 +6 +6 1007.3 949.9
05 18.06 С 6 н/о н/о +11.0 +3.1 58 +8 +8 1007.7 950.3
06 18.06 СВ 5-7
{7}
н/о н/о +11.7 +3.4 57 +9 +9 1007.4 950.3 +10.0 +15.8
07 18.06 С 4-7
{8}
н/о н/о +13.9 +4.1 52 +13 +13 1007.3 950.6
08 18.06 СВ 2-6
{7}
н/о н/о +14.5 +3.4 47 +14 +14 1007.4 950.8
09 18.06 СВ 3-6
{6}
н/о н/о +16.0 +2.7 41 +16 +16 1007.2 950.9
10 18.06 СВ 1 н/о н/о +16.3 +3.2 41 +17 +17 1006.9 950.6
11 18.06 В 2-6
{7}
н/о н/о +17.6 +2.8 37 +18 +18 1006.5 950.5
12 18.06 В 5-8
{8}
н/о н/о +18.6 +2.0 33 +18 +18 1006.0 950.2
13 18.06 В 4 н/о н/о +18.3 +2.9 36 +18 +18 1005.4 949.6
14 18.06 В 6 н/о н/о +18.6 +3.7 37 +18 +18 1004.8 949.1
15 18.06 ЮВ 8-9
{9}
н/о н/о +17.7 +5.6 45 +17 +17 1005.0 949.1
16 18.06 Ю 10-11
{14}
н/о н/о +13.3 +12.6 96 +10 +10 1005.9 949.1
17 18.06 Ю 6-5
{11}
н/о н/о +12.3 +11.4 94 +10 +10 1005.7 948.8
18 18.06 ЮВ 6-7
{7}
н/о н/о +13.1 +9.2 77 +11 +11 1004.7 947.9 +11.7 +19.4
19 18.06 ЮВ 8 н/о н/о +12.9 +10.7 86 +10 +10 1004.3 947.5
20 18.06 Ю 5 н/о н/о +11.6 +11.1 97 +9 +9 1003.8 946.9
21 18.06 Ю 6-6
{8}
н/о н/о +11.9 +10.8 93 +9 +9 1003.7 946.7
22 18.06 ЮЗ 5-6
{8}
н/о н/о +10.6 +10.4 99 +7 +7 1003.9 946.7
23 18.06 ЮЗ 8 н/о н/о +10.8 +10.1 95 +7 +7 1003.6 946.4
00 19.06 З 11-12
{12}
н/о н/о +10.1 +10.0 99 +5 +5 1003.6 946.3
01 19.06 З 10 н/о н/о +9.2 +9.2 100 +4 +4 1003.9 946.4
02 19.06 З 9-10
{12}
н/о н/о +9.0 +9.0 100 +4 +4 1003.9 946.4
03 19.06 З 8-10
{10}
н/о н/о +8.1 +8.1 100 +3 +3 1004.3 946.6
04 19.06 З 9 н/о н/о +7.6 +7.6 100 +2 +2 1004.6 946.8
05 19.06 З 9 н/о н/о +7.8 +7.8 100 +2 +2 1004.8 947.0
06 19.06 З 8-11
{12}
н/о н/о +8.0 +7.6 97 +3 +3 1005.0 947.3 +7.5 +13.2
07 19.06 З 8-10
{12}
н/о н/о +8.9 +7.8 93 +4 +4 1005.1 947.5
08 19.06 З 7-10
{11}
н/о н/о +8.7 +7.8 94 +4 +4 1005.8 948.1
09 19.06 СЗ 7-8
{10}
н/о н/о +9.3 +7.8 90 +5 +5 1006.4 948.8
10 19.06 СЗ 6 н/о н/о +10.9 +8.2 83 +8 +8 1006.5 949.2
11 19.06 СЗ 7 н/о н/о +11.5 +7.5 76 +8 +8 1006.7 949.5
12 19.06 СЗ 5-7
{9}
н/о н/о +11.4 +7.0 74 +9 +9 1007.4 950.1
13 19.06 СЗ 5 н/о н/о +11.1 +6.5 73 +8 +8 1007.8 950.5
14 19.06 З 4 н/о н/о +13.1 +7.2 67 +12 +12 1007.5 950.6
15 19.06 СЗ 4-4
{11}
н/о н/о +12.3 +8.9 80 +10 +10 1008.0 950.9
16 19.06 СЗ 5 н/о н/о +12.8 +8.0 73 +11 +11 1007.9 950.9
17 19.06 С 4-5
{7}
н/о н/о +12.5 +7.3 71 +11 +11 1008.4 951.4
18 19.06 С 5-7
{8}
н/о н/о +12.4 +7.2 71 +10 +10 1008.8 951.6 +8.0 +13.8
19 19.06 С 5 н/о н/о +11.2 +7.0 75 +9 +9 1009.4 952.1
20 19.06 С 4-5
{6}
н/о н/о +10.7 +6.5 75 +8 +8 1010.1 952.5
21 19.06 С 4-4
{5}
н/о н/о +10.5 +6.5 76 +8 +8 1010.5 952.9
22 19.06 С 4-4
{4}
н/о н/о +9.8 +6.5 80 +7 +7 1011.0 953.3
23 19.06 СЗ 3-3
{4}
н/о н/о +9.3 +6.1 80 +7 +7 1011.6 953.7
00 20.06 С 2-2
{4}
н/о н/о +9.4 +5.8 78 +8 +8 1011.8 953.9
01 20.06 СВ 1-1
{3}
н/о н/о +9.5 +6.1 79 +9 +9 1012.1 954.2
02 20.06 штиль 0
{1}
н/о н/о +10.1 +6.4 78 +9 +9 1012.6 954.9
03 20.06 штиль 0
{2}
н/о н/о +10.1 +6.3 77 +10 +10 1012.6 954.8
04 20.06 штиль 0-2
{2}
н/о н/о +9.3 +6.4 82 +9 +9 1012.8 954.9
05 20.06 В 2 н/о н/о +9.8 +7.3 84 +8 +8 1012.9 955.1
06 20.06 В 3-5
{5}
н/о н/о +10.8 +7.2 78 +9 +9 1012.8 955.1 +8.8 +12.4
07 20.06 В 3 н/о н/о +11.2 +7.4 77 +9 +9 1012.8 955.2
08 20.06 В 2 н/о н/о +12.3 +7.8 74 +11 +11 1012.6 955.3
09 20.06 СВ 2-4
{5}
н/о н/о +10.9 +9.5 91 +10 +10 1013.0 955.3
10 20.06 Ю 3 н/о н/о +11.2 +8.0 81 +9 +9 1012.9 955.3
11 20.06 В 3 н/о н/о +13.0 +9.3 78 +12 +12 1012.5 955.3
12 20.06 Ю 3-4
{7}
н/о н/о +14.0 +7.8 66 +13 +13 1012.2 955.2
13 20.06 С 3-4
{11}
н/о н/о +12.5 +8.1 75 +11 +11 1012.5 955.2
14 20.06 В 3 н/о н/о +13.6 +8.5 71 +13 +13 1012.2 955.1
15 20.06 В 3-5
{5}
н/о н/о +14.4 +8.7 69 +14 +14 1011.8 954.9
16 20.06 В 4 н/о н/о +14.3 +8.6 69 +13 +13 1011.5 954.6
17 20.06 В 5 н/о н/о +14.0 +9.2 73 +12 +12 1011.3 954.4
18 20.06 В 4-4
{5}
н/о н/о +13.6 +8.8 73 +12 +12 1011.3 954.3 +10.6 +14.6
19 20.06 ЮВ 5-4
{5}
н/о н/о +12.7 +10.2 85 +10 +10 1011.7 954.5
20 20.06 Ю 5 н/о н/о +11.6 +9.4 86 +9 +9 1012.1 954.6
21 20.06 В 1-2
{6}
н/о н/о +11.6 +8.7 82 +11 +11 1012.1 954.7
22 20.06 СВ 1 н/о н/о +11.0 +9.5 90 +11 +11 1011.7 954.1
23 20.06 Ю 1-3
{3}
н/о н/о +10.5 +9.0 90 +10 +10 1011.3 953.7
00 21.06 В 2-3
{3}
н/о н/о +10.2 +9.5 95 +9 +9 1010.7 953.0
01 21.06 В 7 н/о н/о +10.3 +9.5 95 +6 +6 1010.3 952.7
02 21.06 В 10-11
{11}
н/о н/о +10.3 +9.8 97 +6 +6 1009.8 952.2
03 21.06 В 11-12
{12}
н/о н/о +9.9 +9.8 99 +5 +5 1008.9 951.3
04 21.06 В 12-12
{12}
н/о н/о +9.9 +9.9 100 +5 +5 1008.3 950.8
05 21.06 В 9-11
{12}
н/о н/о +9.9 +9.9 100 +5 +5 1008.1 950.5
06 21.06 В 10-12
{12}
н/о н/о +10.1 +10.1 100 +5 +5 1007.1 949.7 +9.8 +13.6
07 21.06 В 12 н/о н/о +10.5 +10.5 100 +6 +6 1006.4 949.0
08 21.06 В 8 н/о н/о +10.7 +10.7 100 +7 +7 1006.1 948.8
09 21.06 В 10-12
{14}
н/о н/о +10.8 +10.8 100 +6 +6 1005.4 948.1
10 21.06 В 9 н/о н/о +11.1 +11.1 100 +7 +7 1005.4 948.2
11 21.06 В 8 н/о н/о +11.5 +11.5 100 +8 +8 1005.3 948.2
12 21.06 В 6-7
{8}
н/о н/о +12.1 +12.1 100 +9 +9 1004.6 947.6
13 21.06 ЮВ 6 н/о н/о +12.7 +12.7 100 +10 +10 1004.4 947.6
14 21.06 В 5 н/о н/о +13.4 +13.4 100 +11 +11 1004.1 947.5
15 21.06 В 6-7
{7}
н/о н/о +13.8 +13.8 100 +12 +12 1003.7 947.2
16 21.06 В 6-6
{7}
н/о н/о +13.9 +13.9 100 +12 +12 1003.4 946.9
17 21.06 ЮВ 7 н/о н/о +14.3 +14.3 100 +12 +12 1003.0 946.6
18 21.06 ЮВ 6-8
{9}
н/о н/о +14.2 +14.2 100 +12 +12 1002.8 946.4 +10.1 +14.5
19 21.06 ЮВ 5-7
{9}
н/о н/о +14.0 +14.0 100 +12 +12 1002.8 946.3
20 21.06 Ю 4 н/о н/о +14.4 +14.4 100 +13 +13 1002.6 946.2
21 21.06 ЮЗ 5-6
{7}
н/о н/о +14.0 +14.0 100 +12 +12 1002.6 946.2
22 21.06 ЮЗ 5 н/о н/о +13.7 +13.7 100 +12 +12 1002.8 946.3
23 21.06 Ю 3 н/о н/о +13.6 +13.6 100 +12 +12 1002.8 946.3
00 22.06 ЮЗ 5-7
{7}
н/о н/о +13.1 +13.1 100 +11 +11 1002.7 946.0
01 22.06 Ю 5-8
{8}
н/о н/о +13.0 +13.0 100 +11 +11 1002.7 946.0
02 22.06 Ю 8 н/о н/о +12.6 +12.6 100 +9 +9 1002.9 946.1
03 22.06 Ю 5-6
{8}
н/о н/о +12.3 +12.3 100 +10 +10 1002.6 945.8
04 22.06 Ю 6 н/о н/о +12.2 +12.2 100 +9 +9 1002.3 945.5
05 22.06 Ю 5-5
{9}
н/о н/о +12.3 +12.3 100 +10 +10 1001.9 945.2
06 22.06 Ю 5-6
{7}
н/о н/о +13.4 +13.4 100 +11 +11 1001.6 945.1 +12.0 +14.6
07 22.06 Ю 6-10
{10}
н/о н/о +14.0 +14.0 100 +12 +12 1001.4 945.0
08 22.06 ЮВ 6 н/о н/о +14.9 +12.2 84 +13 +13 1001.1 944.9
09 22.06 ЮВ 6-9
{10}
н/о н/о +17.0 +11.0 68 +16 +16 1000.3 944.5
10 22.06 ЮВ 6-8
{10}
н/о н/о +16.8 +9.4 62 +16 +16 1000.0 944.3
11 22.06 Ю 6-9
{11}
н/о н/о +16.9 +9.3 61 +16 +16 999.8 944.0
12 22.06 Ю 8-10
{13}
н/о н/о +16.8 +8.6 58 +15 +15 999.4 943.6
13 22.06 ЮВ 6 н/о н/о +16.5 +8.1 58 +15 +15 999.2 943.4
14 22.06 Ю 7 н/о н/о +17.0 +7.2 52 +16 +16 998.8 943.1
15 22.06 Ю 15-18
{18}
н/о н/о +11.4 +9.0 85 +7 +7 999.5 942.7
16 22.06 ЮЗ 8 н/о н/о +12.5 +8.9 79 +9 +9 999.3 942.7
17 22.06 Ю 10 н/о н/о +11.7 +9.5 86 +8 +8 999.7 943.0
18 22.06 Ю 9-11
{12}
н/о н/о +11.5 +9.7 89 +8 +8 999.8 943.0 +11.4 +17.8
19 22.06 Ю 7 н/о н/о +11.1 +9.8 92 +8 +8 999.9 943.0
20 22.06 Ю 8-9
{9}
н/о н/о +10.7 +10.1 96 +7 +7 999.7 942.8
21 22.06 Ю 9-10
{10}
н/о н/о +9.6 +9.5 99 +5 +5 999.8 942.7
22 22.06 Ю 8-10
{10}
н/о н/о +9.2 +9.2 100 +5 +5 1000.0 942.7
23 22.06 Ю 8 н/о н/о +8.7 +8.7 100 +4 +4 1000.2 942.8
00 23.06 ЮЗ 7-9
{10}
н/о н/о +8.3 +8.3 100 +4 +4 1000.5 943.1
01 23.06 ЮЗ 5-6
{9}
н/о н/о +8.4 +8.4 100 +5 +5 1000.9 943.4
02 23.06 З 6 н/о н/о +8.7 +8.7 100 +5 +5 1001.1 943.6
03 23.06 СЗ 9-11
{11}
н/о н/о +6.9 +6.9 100 +1 +1 1002.0 944.2
04 23.06 СЗ 10 н/о н/о +6.3 +6.3 100 0 0 1002.6 944.7
05 23.06 СЗ 9 н/о н/о +6.0 +6.0 100 -0 -0 1003.5 945.4
06 23.06 СЗ 10-12
{13}
н/о н/о +5.8 +5.8 100 -1 -1 1004.6 946.4 +5.7 +11.7
07 23.06 СЗ 10 н/о н/о +6.0 +6.0 100 -0 -0 1005.4 947.2
08 23.06 СЗ 10 н/о н/о +6.3 +6.3 100 0 0 1006.6 948.4
09 23.06 СЗ 9-11
{11}
н/о н/о +6.4 +6.4 100 +1 +1 1008.0 949.7
10 23.06 С 8-11
{11}
н/о н/о +6.4 +6.4 100 +1 +1 1009.1 950.8
11 23.06 С 9 н/о н/о +5.2 +5.2 100 -1 -1 1010.6 952.0
12 23.06 С 9-11
{11}
н/о н/о +5.4 +5.4 100 -1 -1 1012.0 953.3
13 23.06 С 9 н/о н/о +5.2 +5.2 100 -1 -1 1012.9 954.1
14 23.06 С 9 н/о н/о +4.9 +4.9 100 -2 -2 1013.9 955.0
15 23.06 С 8-10
{12}
н/о н/о +5.0 +5.0 100 -1 -1 1014.9 956.0
16 23.06 С 5-6
{10}
н/о н/о +5.1 +5.1 100 0 0 1015.4 956.4
17 23.06 СЗ 3-5
{7}
н/о н/о +5.4 +5.4 100 +2 +2 1016.0 957.1
18 23.06 СЗ 4-6
{6}
н/о н/о +5.6 +5.6 100 +1 +1 1016.4 957.5 +4.9 +6.6
19 23.06 С 4 н/о н/о +5.9 +5.9 100 +2 +2 1016.9 958.0
20 23.06 С 2 н/о н/о +5.7 +5.7 100 +3 +3 1017.5 958.5
21 23.06 СВ 2-6
{6}
н/о н/о +5.4 +5.4 100 +3 +3 1018.5 959.4
22 23.06 СВ 2 н/о н/о +4.9 +4.9 100 +2 +2 1019.0 959.8
23 23.06 С 4-4
{5}
н/о н/о +4.6 +4.6 100 0 0 1019.7 960.4
00 24.06 С 2-2
{4}
н/о н/о +4.3 +4.1 99 +1 +1 1020.5 961.1
01 24.06 СЗ 2 н/о н/о +4.6 +4.6 100 +2 +2 1020.8 961.4
02 24.06 СЗ 5-5
{5}
н/о н/о +5.0 +5.0 100 0 0 1020.9 961.6
03 24.06 СЗ 6-6
{6}
н/о н/о +5.7 +5.3 97 +1 +1 1021.4 962.2
05 24.06 СЗ 5-7
{7}
н/о н/о +7.5 +5.4 87 +4 +4 1021.9 963.0
06 24.06 СЗ 4-6
{7}
н/о н/о +9.2 +4.0 70 +6 +6 1022.0 963.5 +4.1 +9.2
07 24.06 СЗ 3-5
{6}
н/о н/о +9.6 +3.7 67 +8 +8 1022.2 963.8
08 24.06 СЗ 2-4
{5}
н/о н/о +11.7 +2.9 55 +11 +11 1022.0 964.0

 

Местоположение метеостанции Пюхя (Финляндия): широта 67.02 долгота 27.22 высота над уровнем моря 491 м.

В архиве по умолчанию представлена погода в Пюхе за последнюю неделю. Архивные данные за месяц целиком и за предыдущие месяцы, начиная с января 2011 года, Вы можете получить, выбрав интересующий диапазон дат из раскрывающегося списка и нажав кнопку "Ввод!".


*Определитесь, кто Вы:
робот инопланетянин человек

Внимание! Время в таблицах - всемирное. Для получения местного времени необходимо прибавить поправку, которая равна 1 ч.

Смотрите также архив погоды в соседних городах и на ближайших метеорологических станциях:

Погода на Аэродроме Кемиярви (Финляндия) (33 км)
Погода в Соданкюля (Финляндия) (47 км)
Погода в Савукоски (Финляндия) (51 км)
Погода в Салле (Финляндия) (67 км)
Погода в Рованиеми Апукка (Финляндия) (72 км)
Погода в Рованиеми аэропорту (Финляндия) (80 км)
Погода в Салла Наруска (Финляндия) (86 км)
Погода в Рованиеми (Финляндия) (88 км)
Погода в Соданкила Локка (Финляндия) (92 км)
Погода в Куусамо Киутаконгас (Финляндия) (117 км)

Пояснения к столбцам:

Ветер - указаны скорость ветра в м/с - средняя за 10 мин, порывы в срок и между сроками (в фигурных скобках) и направление, откуда дует ветер: С - северный, СВ - северо-восточный, В - восточный, ЮВ - юго-восточный, Ю - южный, ЮЗ - юго-западный, З - западный, СЗ - северо-западный.
Видимость - горизонтальная дальность видимости в метрах или километрах. При видимости от 1 до 10 км при отсутствии осадков обычно наблюдается дымка, при ухудшении видимости до 1 км и менее - туман. В сухую погоду видимость может ухудшаться дымом, пылью или мглою.
Явления - указаны атмосферные явления, наблюдавшиеся в срок или в последний час перед сроком; фигурными скобками обозначены явления, наблюдавшиеся между сроками (за 1-3 часа до срока); квадратными скобками обозначены град или гололедные отложения с указанием их диаметра в мм.
Облачность - указаны через наклонную черту общая и нижняя облачность в баллах и высота нижней границы облаков в метрах; квадратными скобками обозначены формы облаков: Ci - перистые, Cs - перисто-слоистые, Cc - перисто-кучевые, Ac - высококучевые, As - высокослоистые, Sc - слоисто-кучевые, Ns - слоисто-дождевые, Cu - кучевые, Cb - кучево-дождевые. Подробнее классификацию облаков см. в Атласе облаков (PDF).
T - Температура воздуха - температура, измеренная на высоте 2 м над землей.
Td - Температура точки росы - температура, при понижении до которой содержащийся в воздухе водяной пар достигнет насыщения.
f - Относительная влажность воздуха - влажноcть воздуха, измеренная на высоте 2 м над землей.
Te - Эффективная температура - температура, которую ощущает одетый по сезону человек в тени. Характеристика душности погоды. При расчете учитывается влияние влажности воздуха и скорости ветра на теплоощущения человека.
Tes - Эффективная температура на солнце - температура, которую ощущает человек, с поправкой на солнечный нагрев. Характеристика знойности погоды. Зависит от высоты солнца над горизонтом, облачности и скорости ветра. Ночью, в пасмурную погоду, а также при ветре 12 м/с и более поправка равна нулю.
P - Атмосферное давление - приведенное к уровню моря атмосферное давление.
Po - Атмосферное давление - измеренное на уровне метеостанции атмосферное давление.
Tmin - Минимальная температура - минимум температуры воздуха на высоте 2 м над землей.
Tmax - Максимальная температура - максимум температуры воздуха на высоте 2 м над землей.
R - Количество осадков - Количество выпавших осадков за период времени, мм. При наведении курсора мыши на число - период времени, за который выпало указанное количество осадков.
R24 - Количество осадков - Количество выпавших осадков за 24 часа, мм.
S - Снежный покров - Высота снежного покрова, см. При наведении курсора мыши на число - состояние снежного покрова и степень покрытия местности в баллах.